Tracking 22993 objects as of 11-May-2021
HD Live streaming from Space Station
objects crossing your sky now

COSMOS 1275 DEB

Track COSMOS 1275 DEB now!
10-day predictions


NORAD ID: 14406
Int'l Code: 1981-053JE
Perigee: 850.0 km
Apogee: 890.0 km
Inclination: 82.8 °
Period: 102.2 minutes
Semi major axis: 7240 km
RCS: 0.0178 m2 (small)
Launch date: June 4, 1981
Source: Commonwealth of Independent States (former USSR) (CIS)
Launch site: PLESETSK MISSILE AND SPACE COMPLEX (PKMTR)

Note: This is SATELLITE DEBRIS
aabbcc
Your satellite tracking list
Your tracking list is empty




NASA's NSSDC Master Catalog

Two Line Element Set (TLE):
1 14406U 81053JB  21130.87237767  .00000563  00000-0  31477-3 0  9995
2 14406  82.8419  79.6651 0027558 349.8428  63.7205 14.08981665958483
Source of the keplerian elements: AFSPC